Regional Weather Roundup
Issued by NWS Spokane, WA

Home | Current Version | Previous Version | Text Only | Print | Product List | Glossary On
Versions: 1 2 3 4 5 6 7 8 9 10 11 12 13 14 15 16 17 18 19 20 21 22 23 24 25 26 27 28 29 30 31 32 33 34 35 36 37 38 39 40 41 42 43 44 45 46 47 48 49 50
786
NZUS01 KOTX 241425
RWROTX

Eastern Washington/Northern Idaho Roundup
National Weather Service, Spokane WA
700 AM PDT WED MAY 24 2017

Note: "fair" indicated few or no clouds below 12,000 feet with no
significant weather and/or obstructions to visibility.

...Northeast Washington and Northern Idaho Panhandle...

CITY           SKY/WX    TMP DP  RH WIND       PRES   REMARKS
Spokane Intl   MOSUNNY   48  26  42 W20       29.76R
Spokane Downto SUNNY     51  26  37 SW12      29.77R
Coeur d Alene  SUNNY     50  27  40 W16       29.75R
Deer Park      SUNNY     51  24  34 NW14G22   29.75R
Sandpoint      SUNNY     52  27  37 W8        29.69R
Bonners Ferry  FAIR      52  21  30 W6G18     29.62R

...Southeast Washington and southern Idaho Panhandle...

CITY           SKY/WX    TMP DP  RH WIND       PRES   REMARKS
Walla Walla    SUNNY     52  37  56 S12       29.94R
Pullman/Moscow SUNNY     47  31  53 W18G25    29.85S
Lewiston       SUNNY     55  33  43 W21G31    29.83R
Lowell           N/A     54  47  77 CALM      29.78R
Grangeville    FAIR      54  34  47 W9G18     29.82R

...Columbia Basin...

CITY           SKY/WX    TMP DP  RH WIND       PRES   REMARKS
Ephrata        SUNNY     54  21  27 W18G26    29.84R
Moses Lake     SUNNY     55  24  30 CALM      29.85R
Pasco          SUNNY     54  36  50 SE3       29.92R
Richland       SUNNY     58  31  36 W8        29.92S
Hermiston      SUNNY     51  36  56 SW15G26   29.94R
Pendleton      SUNNY     48  33  56 W25       29.92R

...East Slopes Cascades...

CITY           SKY/WX    TMP DP  RH WIND       PRES   REMARKS
The Dalles     SUNNY     53  35  50 W15       30.02R
Yakima         SUNNY     53  32  44 SE5       29.92F
Ellensburg     SUNNY     49  30  48 W25G33    29.90F
Stampede Pass  CLOUDY    35  31  85 VRB7      29.96R WCI  29
Wenatchee      SUNNY     51  27  39 W18       29.87R
Omak           SUNNY     51  32  48 E5        29.84R
Chelan           N/A     54  20  26 SW18G29     N/A
Sunnyside      SUNNY     51  32  47 W9        29.93S

...Southern British Columbia...

CITY           SKY/WX    TMP DP  RH WIND       PRES   REMARKS
Penticton      PTSUNNY   46  37  71 W5        29.85S
Castlegar      MOSUNNY   52  23  32 NW13G30   29.71R
Cranbrook      PTSUNNY   48  27  43 W22G32    29.47R
Osoyoos          N/A     48  36  61 NE3         N/A
Creston          N/A     52  23  32 W20G29      N/A

...Western Montana...

CITY           SKY/WX    TMP DP  RH WIND       PRES   REMARKS
Kalispell      SUNNY     58  28  32 W23G38    29.51R
Missoula       MOSUNNY   57  29  34 W20G30    29.66R

...Neighboring Cities...

CITY           SKY/WX    TMP DP  RH WIND       PRES   REMARKS
Seattle        PTSUNNY   48  40  73 SE6       30.07R
Portland       CLOUDY    51  39  63 W5        30.13S
Boise          SUNNY     63  40  42 NW17      29.80R
Great Falls    SUNNY     65  30  27 W39G47    29.39F
Calgary        PTSUNNY   52  37  58 N18       29.24F



USA.gov is the U.S. government's official web portal to all federal, state and local government web resources and services.